{"data":{"norad_id":68455,"intl_designator":"2026-067AR","name":"DB CHARMS ND","alt_names":[],"object_type":"PAYLOAD","status":"ACTIVE","operator":null,"country":"US","launch_date":"2026-03-30","launch_site_code":"AFWTR","launch_vehicle":null,"mission":null,"orbit_class":"UNKNOWN","rcs_meters":null,"size_class":null,"mass_kg":null,"dimensions":null,"purposes":[],"wikipedia_slug":null,"has_3d_model":false,"image_url":null,"decayed_at":null,"tle_current":{"epoch":"2026-09-20T03:07:00.609888Z","epoch_age_seconds":100885,"freshness":"FRESH","line1":"1 68455U 26067AR  26263.12986817  .00002865  00000+0  14385-3 0  9994","line2":"2 68455  97.4687 220.1638 0007470  92.5686 267.6403 15.18083474 26330","mean_motion":15.18083474,"eccentricity":0.000747,"inclination_deg":97.4687,"raan_deg":220.1638,"arg_perigee_deg":92.5686,"mean_anomaly_deg":267.6403,"bstar":0.00014385,"rev_number":2633,"period_min":94.856443974437,"perigee_km":506.48658704164,"apogee_km":516.77990378829,"semimajor_km":6889.770245415,"source":"CELESTRAK","updated_at":"2026-09-20T09:00:24.209780Z"}}}